Time,TemperatureF,DewpointF,PressureIn,WindDirection,WindDirectionDegrees,WindSpeedMPH,WindSpeedGustMPH,Humidity,HourlyPrecipIn,Conditions,Clouds,dailyrainin,SoftwareType,DateUTC
2013-04-29 00:00:00,53.9,53.9,29.95,East,88,0.0,0.0,100,0.00,,---,2.21,VWS V12.07,2013-04-29 04:00:00,
2013-04-29 00:30:00,53.8,53.8,29.95,South,186,3.0,6.0,100,0.00,,---,0.00,VWS V12.07,2013-04-29 04:30:00,
2013-04-29 01:00:00,53.5,53.5,29.94,SSW,203,0.0,0.0,100,0.00,,---,0.00,VWS V12.07,2013-04-29 05:00:00,
2013-04-29 01:30:00,53.5,53.5,29.96,SSW,203,0.0,0.0,100,0.00,,---,0.00,VWS V12.07,2013-04-29 05:30:00,
2013-04-29 02:00:00,53.5,53.5,29.95,SSW,203,0.0,0.0,100,0.00,,---,0.00,VWS V12.07,2013-04-29 06:00:00,
2013-04-29 02:30:00,53.2,53.2,29.95,SE,135,0.0,0.0,100,0.00,,---,0.00,VWS V12.07,2013-04-29 06:30:00,
2013-04-29 03:00:00,52.6,52.6,29.93,SE,135,0.0,0.0,100,0.00,,---,0.00,VWS V12.07,2013-04-29 07:00:00,
2013-04-29 03:30:00,52.5,52.5,29.93,ESE,103,0.0,0.0,100,0.00,,---,0.00,VWS V12.07,2013-04-29 07:30:00,
2013-04-29 04:00:00,52.2,52.2,29.92,ESE,103,0.0,0.0,100,0.00,,---,0.00,VWS V12.07,2013-04-29 08:00:00,
2013-04-29 04:30:00,51.4,51.4,29.93,ESE,103,0.0,0.0,100,0.00,,---,0.00,VWS V12.07,2013-04-29 08:30:00,
2013-04-29 05:00:00,52.0,52.0,29.93,ESE,103,0.0,0.0,100,0.01,,---,0.01,VWS V12.07,2013-04-29 09:00:00,
2013-04-29 05:30:00,51.9,51.9,29.93,ESE,103,0.0,0.0,100,0.01,,---,0.01,VWS V12.07,2013-04-29 09:30:00,
2013-04-29 06:00:00,52.0,52.0,29.92,ESE,103,0.0,0.0,100,0.00,,---,0.01,VWS V12.07,2013-04-29 10:00:00,
2013-04-29 06:30:00,52.2,52.2,29.93,ESE,103,0.0,0.0,100,0.00,,---,0.01,VWS V12.07,2013-04-29 10:30:00,
2013-04-29 07:00:00,51.9,51.9,29.93,ESE,103,0.0,0.0,100,0.00,,---,0.01,VWS V12.07,2013-04-29 11:00:00,
2013-04-29 07:30:00,52.2,52.2,29.95,ESE,103,0.0,0.0,100,0.00,,---,0.01,VWS V12.07,2013-04-29 11:30:00,
2013-04-29 08:00:00,52.2,52.2,29.95,ESE,103,0.0,0.0,100,0.00,,---,0.01,VWS V12.07,2013-04-29 12:00:00,
2013-04-29 08:30:00,53.9,53.9,29.96,ESE,103,0.0,0.0,100,0.00,,---,0.01,VWS V12.07,2013-04-29 12:30:00,
2013-04-29 09:00:00,55.7,55.7,29.96,ESE,103,0.0,0.0,100,0.00,,---,0.01,VWS V12.07,2013-04-29 13:00:00,
2013-04-29 09:30:00,55.9,55.9,29.96,ESE,103,1.0,3.0,100,0.00,,---,0.01,VWS V12.07,2013-04-29 13:30:00,
2013-04-29 10:00:00,56.6,56.6,29.96,ESE,103,0.0,3.0,100,0.00,,---,0.01,VWS V12.07,2013-04-29 14:00:00,
2013-04-29 10:30:00,59.6,58.8,29.95,South,177,0.0,0.0,97,0.00,,---,0.01,VWS V12.07,2013-04-29 14:30:00,
2013-04-29 11:00:00,62.0,60.0,29.94,North,355,0.0,1.0,93,0.00,,---,0.01,VWS V12.07,2013-04-29 15:00:00,
2013-04-29 11:30:00,63.7,56.4,29.93,NNE,33,0.0,1.0,77,0.00,,---,0.01,VWS V12.07,2013-04-29 15:30:00,
2013-04-29 12:00:00,62.7,55.8,29.94,NNE,23,0.0,1.0,78,0.00,,---,0.01,VWS V12.07,2013-04-29 16:00:00,
2013-04-29 12:30:00,66.3,55.0,29.93,SSE,157,0.0,4.0,67,0.00,,---,0.01,VWS V12.07,2013-04-29 16:30:00,
2013-04-29 13:00:00,65.5,55.1,29.93,NNE,22,4.0,4.0,69,0.00,,---,0.01,VWS V12.07,2013-04-29 17:00:00,
2013-04-29 13:30:00,66.1,51.8,29.92,ENE,72,2.0,5.0,60,0.00,,---,0.01,VWS V12.07,2013-04-29 17:30:00,
2013-04-29 14:00:00,69.3,54.4,29.90,NNE,13,1.0,2.0,59,0.00,,---,0.01,VWS V12.07,2013-04-29 18:00:00,
2013-04-29 14:30:00,68.9,51.1,29.89,North,5,0.0,6.0,53,0.00,,---,0.01,VWS V12.07,2013-04-29 18:30:00,
2013-04-29 15:00:00,70.3,51.3,29.89,NNE,32,3.0,4.0,51,0.00,,---,0.01,VWS V12.07,2013-04-29 19:00:00,
2013-04-29 15:30:00,70.4,48.7,29.88,NNE,24,1.0,5.0,46,0.00,,---,0.01,VWS V12.07,2013-04-29 19:30:00,
2013-04-29 16:00:00,71.5,46.6,29.86,SSE,147,4.0,5.0,41,0.00,,---,0.01,VWS V12.07,2013-04-29 20:00:00,
2013-04-29 16:30:00,71.6,45.4,29.85,North,5,2.0,4.0,39,0.00,,---,0.01,VWS V12.07,2013-04-29 20:30:00,
2013-04-29 17:00:00,71.6,47.9,29.84,NNE,19,1.0,5.0,43,0.00,,---,0.01,VWS V12.07,2013-04-29 21:00:00,
2013-04-29 17:30:00,71.8,46.9,29.84,NNE,30,2.0,5.0,41,0.00,,---,0.01,VWS V12.07,2013-04-29 21:30:00,
2013-04-29 18:00:00,68.8,53.9,29.84,ENE,63,0.0,0.0,59,0.00,,---,0.01,VWS V12.07,2013-04-29 22:00:00,
2013-04-29 18:30:00,65.5,52.6,29.85,North,360,0.0,4.0,63,0.00,,---,0.01,VWS V12.07,2013-04-29 22:30:00,
2013-04-29 19:00:00,67.1,49.9,29.85,NE,42,3.0,5.0,54,0.00,,---,0.01,VWS V12.07,2013-04-29 23:00:00,
2013-04-29 19:30:00,64.7,51.8,29.85,NE,53,0.0,0.0,63,0.00,,---,0.01,VWS V12.07,2013-04-29 23:30:00,
2013-04-29 20:00:00,61.6,53.6,29.86,NNW,333,0.0,0.0,75,0.00,,---,0.01,VWS V12.07,2013-04-30 00:00:00,
2013-04-29 20:30:00,59.3,54.2,29.87,NNW,330,0.0,1.0,83,0.00,,---,0.01,VWS V12.07,2013-04-30 00:30:00,
2013-04-29 21:00:00,57.3,50.5,29.89,NNW,330,0.0,0.0,78,0.00,,---,0.01,VWS V12.07,2013-04-30 01:00:00,
2013-04-29 21:30:00,55.4,50.0,29.90,NNW,330,0.0,0.0,82,0.00,,---,0.01,VWS V12.07,2013-04-30 01:30:00,
2013-04-29 22:00:00,54.1,49.7,29.92,NNW,330,0.0,0.0,85,0.00,,---,0.01,VWS V12.07,2013-04-30 02:00:00,
2013-04-29 22:30:00,52.9,49.5,29.92,NNW,330,0.0,0.0,88,0.00,,---,0.01,VWS V12.07,2013-04-30 02:30:00,
2013-04-29 23:00:00,51.9,49.7,29.92,NNW,330,0.0,0.0,92,0.00,,---,0.01,VWS V12.07,2013-04-30 03:00:00,
2013-04-29 23:30:00,51.1,49.4,29.92,NNW,330,0.0,0.0,94,0.00,,---,0.01,VWS V12.07,2013-04-30 03:30:00,